Wind_Speed
20 20 19 19 19 19 20 20 20 21 22 22 23 24 23 23 22 22 22 22 23 24 24 24 24 24 24 24 24 24 25 25 25 25 26 26 26 26 26 26 25 25 24 24 23 23 23 24 25 26 27 27 28 29 30 30 30 29 29 29 29 29 29 30 30 30 30 30 31
22 21 20 19 19 19 19 20 20 20 21 21 22 23 23 23 22 22 22 22 23 23 23 24 24 24 24 24 24 24 25 25 26 26 26 27 27 27 27 27 27 27 27 27 26 25 24 23 23 23 24 25 26 27 28 29 30 30 30 30 30 30 31 31 31 30 30 30 31
23 22 21 20 19 19 20 21 20 20 20 21 22 22 23 23 23 23 23 22 22 22 23 24 24 24 24 24 24 24 24 25 25 25 26 26 26 27 27 27 28 28 28 28 28 28 26 25 24 23 22 23 24 25 26 27 28 29 29 29 29 29 29 29 29 29 28 28 30
23 23 22 21 20 20 21 21 21 20 20 21 21 22 22 23 23 23 23 23 22 23 24 24 24 24 24 25 25 24 24 24 25 25 26 26 26 27 27 27 28 29 29 29 29 29 29 28 26 24 23 22 23 23 24 25 26 27 27 26 26 26 26 26 26 26 26 27 29
23 23 22 21 21 21 21 21 20 20 20 20 21 22 22 23 23 23 23 23 24 24 24 24 24 25 25 25 25 25 25 25 26 26 27 27 27 27 28 28 28 29 29 29 30 30 30 30 29 27 26 24 22 21 22 23 24 25 26 26 26 25 25 24 25 26 28 28 29
23 23 22 21 21 21 21 21 21 20 20 20 21 22 23 23 23 23 24 24 24 24 24 24 24 25 25 25 26 26 27 27 27 28 28 29 29 29 29 30 30 30 30 30 30 30 30 30 30 30 29 26 24 22 22 23 24 25 25 25 24 24 24 25 27 28 29 28 29
22 22 22 22 22 22 22 21 21 21 20 20 21 22 23 23 23 23 24 24 24 24 25 25 25 25 25 26 26 27 28 28 29 29 30 30 30 31 31 31 31 31 31 31 31 31 31 31 30 29 28 26 24 24 24 24 25 26 26 26 24 24 24 25 26 27 28 29 29
21 22 22 22 22 22 22 22 21 21 21 21 22 22 23 23 23 24 24 24 25 25 25 25 25 25 26 26 27 27 28 29 29 30 30 30 31 31 31 31 31 31 31 31 31 31 31 31 29 28 26 25 25 25 26 27 28 29 28 28 27 26 25 25 25 26 27 28 29
22 22 22 22 22 22 22 21 21 21 21 21 22 23 23 24 24 25 25 26 26 26 26 26 26 26 27 27 27 28 28 29 29 30 30 30 31 31 31 31 31 31 31 31 31 32 31 30 28 26 26 26 26 27 28 29 30 30 29 29 28 27 27 27 26 27 27 27 28
22 22 22 22 22 22 22 21 21 21 21 22 23 23 24 25 25 26 26 26 27 27 27 27 27 28 28 28 28 28 29 29 29 30 30 30 31 31 31 31 31 32 32 32 32 32 31 29 27 27 27 27 28 29 30 30 30 30 29 28 28 28 29 29 29 29 29 28 28
22 22 22 22 22 22 22 22 22 22 22 23 24 25 25 26 26 26 26 27 27 28 28 28 28 28 28 28 28 29 29 30 30 30 30 30 31 31 31 31 32 32 32 32 32 31 29 28 28 29 30 30 30 30 30 30 30 30 30 29 29 30 30 30 30 30 29 29 29
23 23 22 23 23 23 23 23 23 23 24 25 25 26 26 26 26 27 27 28 28 28 28 28 28 28 28 28 29 29 30 30 30 30 30 30 31 31 31 32 32 32 33 33 32 30 29 28 29 30 31 31 30 29 29 30 30 30 30 31 31 30 30 31 31 30 29 29 29
23 23 23 23 23 24 24 24 24 24 25 26 26 27 27 27 27 27 27 28 28 28 28 28 28 28 28 28 29 29 30 30 30 30 30 30 30 31 31 31 32 32 32 32 31 30 29 29 30 30 31 31 30 30 30 31 31 31 31 31 31 30 30 30 30 30 30 30 29
23 23 24 24 24 24 25 25 24 24 25 26 27 27 27 27 27 27 28 28 28 28 28 28 28 28 28 29 29 30 30 30 30 30 30 30 30 30 30 31 31 32 32 31 31 31 31 30 30 30 31 31 31 31 31 31 30 30 30 30 30 30 30 30 30 30 30 29 29
24 24 24 24 25 25 26 26 25 25 26 27 27 28 28 27 27 28 28 29 29 28 28 29 29 29 29 30 30 30 30 30 30 29 29 30 30 30 30 31 31 31 31 31 31 31 31 31 31 31 30 31 31 31 30 30 29 29 29 29 29 29 29 29 28 28 28 27 27
24 24 24 25 25 26 26 26 25 25 26 27 28 28 28 28 28 29 29 29 29 29 29 30 31 30 30 30 30 30 30 30 29 29 29 29 30 30 30 31 31 31 31 31 31 31 31 31 31 30 31 30 30 30 29 28 27 27 26 26 26 26 26 26 25 25 25 25 25
24 24 25 25 25 26 27 27 26 26 27 28 28 28 28 29 29 30 30 30 30 30 31 32 32 31 31 31 31 31 30 29 29 28 29 29 30 31 31 31 30 31 31 31 30 30 31 31 31 31 30 30 29 28 27 26 26 25 25 25 25 24 24 24 24 24 24 24 24
24 24 24 25 26 26 27 28 28 28 28 28 29 29 29 30 30 31 31 31 31 32 33 33 33 32 31 32 32 31 30 29 29 30 30 30 31 31 31 31 31 31 31 30 30 30 30 30 30 30 29 28 27 27 26 26 25 25 25 25 25 25 25 25 25 25 25 26 26
24 24 24 25 26 27 27 28 28 29 29 29 29 30 30 31 31 32 32 32 33 33 33 34 33 32 32 33 33 32 31 30 30 31 31 32 32 32 32 32 32 32 31 31 30 30 30 30 30 29 29 28 28 28 28 27 27 27 26 26 26 25 25 25 26 26 26 26 27
23 23 24 24 26 27 28 28 28 29 29 29 30 31 31 32 32 32 33 33 34 34 34 34 33 33 33 34 34 33 32 31 31 32 32 32 32 32 32 33 33 32 32 31 30 30 29 29 29 29 29 29 30 30 30 29 29 28 28 27 26 26 26 26 26 26 26 27 27
22 23 24 24 26 27 28 28 29 29 29 30 30 31 31 32 32 32 33 33 34 34 34 33 33 33 33 34 34 34 33 32 32 32 32 33 33 33 33 33 33 33 32 31 30 30 29 29 29 30 30 31 31 31 30 30 29 29 29 28 27 27 27 27 27 27 27 27 27
22 23 24 24 26 27 28 29 29 29 29 29 30 30 31 31 31 32 32 33 33 33 33 33 33 33 33 34 34 34 33 33 32 32 33 33 33 33 34 33 33 33 32 31 30 30 30 30 31 31 32 32 32 31 31 30 30 29 29 29 28 28 28 27 27 27 27 27 27
23 24 24 25 26 28 29 29 29 29 29 29 30 30 30 31 31 32 32 32 32 32 32 32 32 32 33 33 33 33 33 33 33 33 33 34 34 34 34 33 33 32 31 30 30 30 31 31 33 33 33 32 32 32 31 31 30 30 29 29 29 29 29 28 28 27 27 27 27
23 24 25 25 27 28 28 28 28 28 28 29 29 29 30 30 31 31 31 32 32 32 32 32 32 32 33 32 32 32 32 32 33 33 34 34 33 34 34 33 32 31 30 30 31 32 34 34 35 35 34 33 32 32 31 31 30 30 30 29 29 29 29 28 28 27 27 27 27
24 25 26 27 27 28 28 28 28 28 28 28 29 29 29 30 30 30 31 31 32 32 32 33 32 32 31 30 30 30 31 31 31 32 33 33 33 33 32 32 31 30 30 30 33 35 38 39 38 37 35 33 33 32 32 31 30 30 29 29 28 28 28 28 28 28 27 27 27
24 25 26 27 27 27 27 27 27 27 28 28 29 29 29 30 29 29 30 31 32 32 32 32 32 31 30 29 29 30 31 31 30 31 32 32 32 32 32 31 30 30 30 31 35 38 40 41 41 39 37 35 33 32 32 31 30 29 29 28 27 27 27 27 27 28 28 27 27
25 26 26 27 27 27 26 26 27 27 28 28 28 29 29 30 29 30 30 31 31 31 32 31 30 30 29 28 29 30 31 31 31 31 31 31 31 32 32 31 30 30 31 33 36 39 40 41 41 40 39 37 34 32 31 30 29 28 27 26 26 25 25 26 26 27 27 28 29
25 26 27 27 27 26 26 27 27 27 28 28 28 29 29 30 30 30 30 30 31 31 31 31 30 29 28 28 29 30 31 32 32 31 31 31 32 32 32 31 31 31 32 35 37 39 39 40 39 39 39 38 35 32 30 29 28 27 26 25 25 25 25 25 25 26 27 28 29
26 27 27 27 26 26 27 27 27 27 28 28 28 29 29 30 29 29 30 30 31 31 31 31 30 30 29 30 30 31 31 32 31 31 32 32 32 32 32 32 32 33 34 36 38 38 39 39 39 39 38 38 35 32 28 27 26 25 25 24 24 24 24 25 25 26 27 28 29
26 27 27 27 27 27 27 27 28 28 28 28 29 29 29 29 29 29 30 30 31 31 31 31 31 31 31 31 31 31 31 32 32 33 33 33 33 32 33 33 33 35 36 37 37 37 38 39 39 39 38 37 35 31 27 25 24 24 23 23 23 24 24 25 25 26 26 27 28
27 27 27 27 27 27 27 28 28 29 29 29 29 29 29 29 29 29 30 31 31 31 32 32 32 32 32 32 31 31 31 32 33 33 33 33 33 33 34 35 35 35 35 36 36 37 38 39 39 39 38 37 34 30 26 24 23 23 22 23 24 24 25 25 25 26 27 27 28
27 27 27 27 27 27 28 28 29 29 29 29 29 28 28 29 29 30 31 31 31 31 32 32 32 31 31 31 31 31 32 33 33 33 33 34 34 35 35 35 35 34 34 35 37 38 39 40 40 39 38 36 33 29 25 23 22 22 22 23 24 25 25 25 26 26 27 27 27
27 27 26 26 27 27 28 28 28 28 29 28 28 28 28 29 30 31 31 30 30 30 30 30 30 30 30 30 31 32 32 33 33 33 34 34 35 35 35 35 34 34 35 36 38 39 40 40 40 39 38 35 31 27 24 22 22 22 22 23 24 25 26 26 26 26 26 27 27
26 26 26 26 27 27 28 28 28 28 28 28 28 28 28 29 30 31 31 30 30 29 29 29 29 29 29 30 31 32 32 32 33 33 34 35 35 35 35 34 33 34 36 38 39 40 41 40 40 39 37 34 30 25 23 22 22 22 23 24 25 26 26 26 26 26 26 26 26
26 26 26 26 26 27 27 27 27 27 27 27 28 29 29 30 30 30 30 30 30 29 29 29 29 29 29 30 31 31 32 32 33 33 34 34 35 35 35 35 35 36 38 39 40 40 41 40 39 38 36 33 28 24 22 22 22 22 23 24 25 25 26 25 25 25 26 26 27
25 26 26 26 26 27 27 27 27 27 27 28 28 29 30 30 30 30 30 30 30 29 29 29 29 30 30 31 31 31 31 32 33 34 34 34 34 35 35 36 36 38 39 40 40 40 40 39 39 37 35 31 27 24 23 22 22 22 23 24 24 25 25 25 25 26 26 27 28
25 25 26 26 26 26 27 27 27 28 28 28 29 29 30 30 30 29 29 29 29 29 29 29 30 30 30 31 31 31 31 32 33 34 34 34 34 35 35 36 36 37 38 39 39 39 39 38 37 35 33 30 26 24 23 22 22 22 22 23 24 24 24 25 25 26 27 28 29
25 25 25 26 26 26 27 27 27 28 28 29 29 29 29 29 29 29 28 28 28 29 29 30 30 30 30 31 31 32 32 32 33 33 34 34 34 34 35 36 36 37 37 38 38 37 37 36 35 33 31 29 26 25 24 23 22 22 22 23 23 24 24 25 26 27 28 29 30
25 25 25 26 26 27 27 27 27 28 28 29 29 29 29 29 28 28 28 27 28 28 29 30 30 30 31 31 32 32 33 33 33 33 33 34 34 34 34 35 35 35 36 36 35 35 35 34 33 32 30 29 27 26 25 24 23 23 22 22 23 24 25 26 27 27 29 30 30
25 26 26 26 26 27 27 28 28 28 28 29 29 29 29 28 28 28 28 28 28 28 29 29 30 30 31 31 32 33 33 33 33 33 33 33 33 34 34 34 34 34 34 34 33 33 33 32 32 31 30 29 28 28 26 25 24 23 22 22 23 24 25 26 27 28 29 30 31
26 26 26 26 26 27 27 28 28 28 28 28 28 28 28 28 28 28 28 28 29 29 29 29 30 31 32 32 32 32 33 33 33 33 33 33 33 33 32 32 33 33 33 32 32 32 32 32 31 31 31 31 31 30 29 27 25 23 23 23 23 24 25 27 28 29 30 31 31
Wind_Direction
10 8 7 7 8 9 10 9 8 7 5 3 2 2 1 0 359 358 359 359 358 356 355 353 352 351 350 350 349 347 345 343 341 339 337 336 335 335 335 335 334 333 331 327 322 315 306 298 290 284 280 278 277 276 276 275 275 275 276 277 276 275 273 272 273 273 271 265 260
10 7 5 4 5 7 8 8 7 6 5 4 3 4 5 5 4 3 2 1 359 358 356 355 354 352 351 349 348 346 344 342 340 338 335 334 333 332 331 331 331 331 330 330 329 327 323 316 307 296 288 283 280 278 277 276 276 276 276 276 275 275 275 277 278 278 275 270 266
11 10 8 8 8 10 10 9 8 7 5 4 3 4 5 5 5 3 1 359 357 356 355 354 352 351 349 347 345 343 341 339 337 335 333 331 330 329 329 328 327 327 327 326 326 326 326 324 319 311 301 292 287 282 280 279 278 276 275 274 273 275 278 279 279 278 275 272 273
11 12 13 14 15 14 13 12 10 8 5 3 1 1 1 1 1 359 357 354 353 352 352 351 349 348 346 344 342 340 339 337 335 333 332 330 328 327 326 325 325 324 324 324 323 323 322 322 321 318 312 305 297 290 285 282 280 278 276 275 275 278 280 280 278 276 275 275 278
10 12 14 16 17 15 14 12 10 7 4 1 359 358 358 357 356 355 353 351 351 350 348 347 346 345 343 342 341 339 338 337 335 334 332 330 329 327 325 324 323 322 322 321 321 321 320 319 318 317 315 312 305 297 291 288 284 281 278 276 277 279 281 280 278 276 277 278 280
8 10 12 13 13 12 11 9 8 6 3 360 358 357 356 355 354 352 351 350 349 347 346 345 344 344 342 341 340 339 338 337 336 335 333 331 329 328 326 324 323 321 320 319 319 318 318 317 316 314 313 312 308 303 299 296 292 288 285 283 281 281 279 277 276 276 276 276 277
6 8 9 9 8 8 6 5 4 2 1 359 358 357 355 354 352 351 350 348 347 347 346 345 345 344 343 341 340 339 338 337 336 335 333 331 330 328 326 325 323 321 320 319 317 316 315 314 312 311 310 309 307 305 303 302 300 298 296 293 291 287 282 278 276 274 273 273 272
6 7 7 6 5 4 3 2 1 0 360 359 358 356 354 353 351 350 349 348 348 347 346 345 344 343 342 341 340 338 337 336 334 332 331 330 329 327 326 325 323 321 320 319 317 315 314 312 310 308 306 305 304 303 303 302 302 301 299 298 296 293 289 286 282 279 277 275 273
7 6 5 4 3 2 0 359 359 360 359 358 356 355 354 352 351 351 350 349 347 345 344 343 342 341 340 339 337 336 334 333 331 330 329 328 327 326 325 324 322 321 320 319 317 315 313 311 308 305 303 302 301 300 301 301 301 300 299 298 297 297 295 293 292 290 287 285 282
8 7 5 4 2 1 359 359 359 359 359 357 355 354 353 352 351 350 348 346 344 343 342 341 340 339 337 336 334 333 331 329 328 327 326 325 325 324 323 322 321 320 319 318 317 315 313 310 306 304 302 300 299 298 298 298 298 297 297 297 297 296 296 296 296 295 294 293 291
7 7 5 4 2 0 359 359 359 359 358 357 355 353 352 351 349 348 346 343 342 341 340 339 338 336 335 333 332 330 328 327 325 324 323 323 322 322 321 320 319 318 317 316 316 314 312 309 307 304 302 300 299 298 297 297 296 295 294 294 294 294 294 295 295 295 295 295 294
6 5 4 2 1 360 359 359 359 358 357 356 354 352 351 349 348 346 344 342 341 340 338 337 336 335 333 331 329 328 326 325 323 322 321 320 320 319 319 318 317 316 315 315 314 313 311 309 307 305 304 302 301 299 297 296 295 294 293 293 292 292 292 293 293 294 294 294 293
4 3 2 1 360 359 359 359 359 358 356 355 353 351 350 348 346 345 343 341 340 338 337 336 335 333 331 329 328 326 325 323 322 321 320 319 318 318 317 316 315 315 314 313 313 312 311 310 309 308 306 305 303 301 299 297 296 294 293 293 292 291 291 291 292 292 292 292 292
3 2 1 360 359 359 360 359 358 357 355 353 352 350 348 346 345 344 342 340 339 337 335 334 333 332 330 328 327 326 324 323 321 320 319 318 318 317 316 315 315 314 313 313 313 312 311 311 310 310 309 308 306 305 303 300 298 296 295 293 292 292 291 291 291 292 292 292 292
2 2 1 360 360 360 360 359 358 356 354 352 350 349 347 345 343 342 341 339 337 336 334 333 332 330 329 328 327 326 324 323 322 321 320 319 318 317 317 316 315 315 314 313 313 313 313 312 312 312 311 310 309 308 307 305 303 301 299 297 296 295 294 294 293 293 293 293 294
3 2 1 1 0 0 360 359 357 355 352 350 349 347 345 344 342 341 339 338 336 335 333 332 331 330 328 328 327 326 325 324 323 322 321 320 319 319 318 317 316 316 316 315 315 315 315 314 314 314 313 312 312 311 312 311 311 310 308 306 304 303 301 300 299 299 298 298 298
3 2 2 1 1 0 359 358 356 354 351 349 347 346 344 342 341 340 338 337 336 334 333 332 331 330 328 327 327 327 326 325 324 323 322 321 321 320 319 319 318 318 318 317 317 317 316 316 316 316 315 315 315 316 317 318 318 317 316 315 313 311 309 307 306 305 304 303 302
3 2 2 1 0 359 358 356 354 352 350 348 346 344 343 341 340 339 337 337 336 334 333 332 331 330 328 328 328 327 327 326 324 324 323 323 322 322 321 321 320 320 320 320 319 318 318 318 318 318 319 319 320 321 323 323 322 321 320 318 316 314 312 311 309 308 306 305 304
3 2 1 1 359 357 356 354 352 351 348 346 344 343 341 340 339 338 337 336 335 334 333 332 331 330 329 328 328 327 327 326 325 324 324 324 323 323 323 323 322 322 322 321 320 320 320 320 321 322 323 324 325 325 325 324 323 321 319 318 315 314 312 311 309 308 307 305 304
2 1 0 359 358 356 354 353 351 349 347 345 343 342 341 340 339 338 337 335 335 334 333 332 330 330 329 328 328 327 327 326 325 325 324 324 324 324 324 324 324 323 323 323 322 322 322 323 324 326 327 327 327 326 325 323 322 320 319 317 315 313 311 310 309 308 306 305 303
2 0 359 358 356 355 353 351 349 347 345 344 343 342 340 339 338 337 336 335 334 333 332 331 330 329 329 328 327 327 326 325 325 324 324 324 324 324 324 324 324 324 324 324 324 324 324 325 326 328 328 327 326 325 323 322 321 319 318 316 314 313 311 310 309 308 306 305 303
1 359 358 356 354 353 351 349 347 346 345 343 342 341 339 338 337 336 335 334 333 332 332 330 330 328 328 327 326 325 325 324 324 323 323 323 323 324 324 325 325 324 324 324 324 325 326 326 327 327 327 326 324 323 322 321 320 318 317 315 314 312 311 310 309 308 306 305 303
360 358 357 355 353 351 349 348 347 345 344 342 341 339 338 337 335 334 333 333 332 331 331 329 328 327 326 325 325 324 324 323 323 322 323 323 323 323 324 324 324 324 324 324 324 325 326 326 326 326 326 325 323 322 321 320 319 317 316 315 313 312 311 310 309 308 307 306 304
358 357 355 353 351 350 348 347 345 344 342 340 339 337 336 335 334 333 332 332 331 330 329 328 327 326 325 324 324 323 323 322 322 321 322 322 322 323 323 324 323 323 323 322 323 323 324 325 325 325 324 324 322 321 321 320 318 317 316 314 313 312 312 311 310 310 309 308 307
357 355 353 351 349 348 346 345 343 341 339 338 337 335 335 334 333 332 331 330 330 329 328 327 326 325 325 324 323 322 322 321 320 320 320 320 321 321 322 322 322 321 321 321 321 322 323 323 323 323 322 322 321 321 320 319 318 317 316 315 314 313 313 313 313 313 312 312 311
355 353 351 349 346 344 343 341 340 338 337 336 335 334 333 332 331 330 330 329 329 328 328 327 326 325 324 323 322 322 321 321 320 319 319 319 319 320 320 320 320 319 319 319 319 320 321 322 322 322 321 320 320 320 320 319 319 318 317 316 316 316 316 315 316 316 315 315 314
353 350 348 345 343 341 340 338 337 336 335 334 333 332 331 330 329 329 328 328 328 327 327 327 326 325 324 322 321 321 320 320 319 319 319 318 318 318 318 318 318 317 316 317 318 319 319 320 320 320 320 319 319 319 320 319 319 318 318 318 318 318 318 317 317 317 317 316 315
350 347 344 342 340 338 337 336 335 334 333 332 331 330 329 328 328 327 327 327 327 327 327 326 325 324 323 322 320 319 319 320 320 320 319 319 318 318 317 316 316 315 315 316 317 317 318 318 318 318 318 318 318 319 319 319 319 319 319 319 319 319 318 318 318 317 317 316 315
347 344 341 340 337 336 335 334 333 332 331 330 329 328 328 327 327 326 326 326 326 326 326 325 324 323 321 320 319 319 319 320 320 320 320 319 318 317 316 315 314 314 314 315 315 315 316 316 316 316 316 317 317 318 318 319 318 318 318 318 318 318 318 317 317 317 316 315 315
343 341 339 337 335 334 333 332 331 330 329 328 328 327 327 326 326 326 326 326 325 324 323 323 322 320 319 318 318 319 319 320 321 320 319 318 317 316 315 314 314 314 314 314 314 314 314 314 314 314 314 315 317 317 317 318 318 318 317 317 317 317 317 317 317 316 316 315 315
341 339 337 335 333 332 331 330 330 329 329 328 327 327 326 325 325 325 325 324 323 322 322 322 320 319 319 319 319 319 320 320 320 320 319 317 316 315 314 314 313 313 313 313 312 312 312 312 312 312 313 314 316 317 317 318 318 317 317 316 317 317 317 317 317 316 316 316 316
338 337 335 333 331 330 329 329 329 328 328 327 327 326 326 325 325 324 324 323 322 322 322 321 320 319 319 319 320 320 320 320 319 318 317 316 315 314 314 313 313 312 312 311 311 311 311 311 311 311 312 312 315 317 318 318 318 317 316 316 317 317 317 317 316 316 316 316 316
336 334 333 331 330 329 328 328 328 328 327 327 326 326 325 325 324 324 324 323 322 322 321 320 320 319 319 320 320 320 319 318 318 317 316 316 315 314 313 313 312 311 311 310 310 310 310 311 311 310 310 311 313 316 318 318 317 317 317 317 317 317 317 316 316 316 316 316 316
334 332 331 330 328 328 327 327 327 327 327 326 326 326 325 325 325 324 324 323 322 321 320 320 319 319 319 319 319 318 317 317 316 316 316 315 315 314 313 312 311 310 310 310 310 310 310 310 310 310 310 311 313 315 317 318 318 318 318 318 318 317 316 316 316 316 316 316 315
332 330 329 328 327 327 327 327 327 327 327 326 326 326 325 325 324 324 323 323 322 321 320 320 319 319 319 318 318 317 316 316 316 315 315 315 314 313 312 311 310 310 310 310 310 310 310 310 310 310 310 311 312 314 317 318 318 319 319 319 318 317 316 316 316 316 316 315 314
331 329 328 327 326 326 326 326 327 326 326 326 325 325 324 324 324 323 323 323 322 321 321 320 320 319 318 318 317 317 316 316 315 315 315 314 314 313 311 311 310 310 310 310 310 310 311 311 312 312 311 312 313 316 318 319 319 320 320 319 318 317 317 318 318 317 316 315 314
330 328 327 326 325 325 325 326 326 326 326 325 324 324 324 323 323 323 323 323 322 321 321 320 319 319 318 317 316 316 316 315 315 314 314 314 313 312 311 310 310 310 311 311 311 312 313 314 314 315 315 315 316 318 320 321 321 320 320 319 318 318 319 319 319 318 317 315 313
329 328 327 325 325 325 325 325 326 325 324 324 323 323 323 323 323 323 323 323 322 321 320 319 318 317 317 316 316 315 315 315 314 314 313 313 312 312 311 311 310 311 312 312 313 314 316 318 319 320 321 320 321 322 323 323 322 322 321 321 320 320 320 321 320 319 317 315 314
327 327 326 325 324 324 324 325 324 324 323 322 322 322 323 323 322 322 322 321 320 319 318 317 316 316 316 316 315 315 315 314 314 313 312 312 312 312 312 312 312 312 314 315 316 318 321 324 326 328 328 327 327 327 327 326 325 324 324 324 323 323 322 322 321 320 318 316 315
326 326 326 325 324 324 324 323 322 322 322 321 321 321 322 322 321 321 320 320 319 318 317 316 316 315 316 316 315 314 314 314 313 313 312 312 313 314 314 314 314 315 316 318 321 324 327 331 333 334 335 334 334 333 331 329 328 327 327 327 327 325 324 323 322 321 319 318 317
326 326 325 325 324 323 323 322 321 321 321 321 320 320 320 320 320 320 319 319 318 317 317 316 315 315 315 315 314 313 313 313 313 313 313 314 315 316 317 317 317 317 319 321 324 328 332 335 337 337 338 338 337 336 334 332 330 329 329 329 328 327 325 324 323 322 321 319 318
Height
759 759 758 758 757 757 756 755 755 754 753 752 752 751 750 749 748 747 747 746 745 744 743 742 742 741 740 739 737 737 735 734 733 732 732 731 730 729 728 727 726 725 724 723 722 721 720 719 718 717 716 714 713 712 712 711 710 709 708 707 706 705 703 702 702 702 701 700 699
759 759 758 758 757 757 756 755 754 754 753 752 752 751 750 749 748 747 747 746 745 744 743 742 742 741 739 738 737 736 735 734 733 732 731 730 729 728 727 726 725 724 723 722 721 720 719 718 717 716 714 713 712 711 710 709 708 707 706 705 704 703 702 701 700 700 699 698 697
759 759 758 758 757 757 756 755 754 754 753 752 752 751 750 749 748 747 747 746 745 744 743 742 741 740 739 738 737 736 735 734 733 732 731 730 729 727 726 725 724 723 722 721 720 719 718 717 716 714 713 712 711 709 708 707 706 705 704 702 702 701 701 700 699 698 697 696 695
759 759 758 758 757 757 756 755 754 754 753 752 752 751 750 749 748 747 747 746 745 744 743 742 741 740 739 738 737 736 735 734 733 732 731 730 728 727 726 725 723 722 721 720 718 717 716 715 714 713 712 711 709 708 707 705 704 703 702 701 700 699 699 698 697 696 695 694 693
760 759 759 758 757 757 756 755 755 754 753 752 752 751 750 749 748 747 747 746 745 744 743 742 741 740 739 738 737 736 735 734 733 732 731 729 728 727 726 724 723 722 720 719 717 716 715 714 712 712 710 709 708 707 705 704 702 701 700 699 698 697 697 696 695 694 693 692 691
760 759 759 758 757 757 756 755 755 754 753 752 752 751 750 749 748 747 747 746 745 744 743 742 741 740 739 737 737 736 734 733 732 731 730 729 727 726 725 724 722 721 720 718 717 716 714 713 711 710 709 707 706 705 704 703 701 700 698 697 696 695 694 693 692 691 690 689 689
760 759 759 758 757 757 756 755 754 754 753 752 752 751 750 749 748 747 747 746 745 744 742 742 741 740 738 737 736 735 734 733 732 731 729 728 727 726 724 723 722 721 719 718 716 715 713 712 711 709 707 706 705 704 702 702 700 699 697 696 695 694 692 691 690 689 688 687 686
760 760 759 758 757 756 756 755 754 754 753 752 752 751 750 749 748 747 747 745 744 743 742 741 740 739 738 737 736 735 733 732 731 730 729 727 726 725 723 722 721 720 718 717 716 714 713 712 710 708 707 705 704 702 701 700 699 697 696 694 693 692 691 690 689 687 686 685 683
760 760 759 758 757 757 756 755 755 754 753 752 752 751 750 749 748 747 746 745 744 743 742 741 740 739 738 737 736 734 733 732 731 729 728 727 725 724 722 721 720 718 717 716 715 713 712 711 709 707 706 705 703 702 700 699 697 696 694 693 692 690 689 688 687 686 685 684 682
761 760 759 758 757 757 756 756 755 754 753 753 752 751 750 749 748 747 747 746 744 743 742 741 740 739 737 737 735 734 733 732 730 729 727 726 725 723 722 720 719 717 716 715 713 712 711 709 708 706 705 704 702 700 699 698 697 695 693 692 690 689 687 687 686 685 683 682 681
761 760 759 759 758 757 756 756 755 754 753 753 752 751 750 749 748 747 747 746 744 743 742 741 740 739 737 736 735 734 732 731 730 728 727 725 724 722 721 720 718 717 715 714 712 711 710 708 707 705 703 702 701 699 698 696 695 693 692 690 689 688 686 685 684 683 682 680 679
761 761 760 759 758 757 757 756 755 754 753 752 752 751 750 749 748 747 746 745 744 743 742 741 740 738 737 736 734 733 732 731 729 728 726 725 723 722 720 719 717 716 714 712 711 710 708 707 706 704 702 701 700 698 697 695 693 692 690 689 687 686 685 683 682 681 680 678 677
762 761 760 759 758 757 756 755 755 754 753 752 752 751 750 749 748 747 746 745 743 742 741 740 739 738 736 735 734 732 731 730 728 727 725 724 722 721 719 718 717 715 713 712 710 709 707 706 704 702 701 699 698 697 695 693 692 690 689 687 686 684 683 682 681 679 678 677 676
762 761 760 759 758 757 756 755 755 754 753 752 751 751 749 748 747 746 745 744 743 742 740 739 738 737 736 734 733 731 730 728 727 726 724 723 722 720 718 717 716 714 712 711 709 708 707 705 703 702 700 698 696 695 693 692 690 689 687 686 684 683 681 680 679 678 677 676 674
762 761 760 759 758 757 756 756 755 754 753 752 751 750 749 748 747 746 745 743 742 741 740 738 737 735 734 733 732 730 729 727 726 724 723 721 720 719 717 716 714 713 711 710 708 707 705 704 702 700 699 697 695 693 692 690 689 687 686 684 683 681 680 679 678 677 676 674 673
762 761 760 759 758 757 757 756 755 754 753 752 751 750 749 748 747 746 744 743 742 740 739 737 736 734 733 732 731 729 727 726 725 723 722 720 719 717 716 714 713 712 710 708 707 705 704 702 701 699 697 696 694 692 691 689 687 686 685 683 682 680 679 678 677 675 674 673 672
762 761 760 759 758 757 757 756 755 754 753 752 751 750 749 748 747 745 744 743 741 740 738 737 735 734 732 731 729 728 727 725 723 722 721 719 717 716 715 713 712 710 709 707 706 704 702 701 699 698 696 694 693 691 690 688 687 685 684 682 681 679 678 677 676 674 673 672 671
762 761 760 759 758 757 757 756 755 754 753 752 751 750 749 747 746 745 743 742 741 739 737 736 735 733 732 730 728 727 726 724 722 721 720 718 717 715 713 712 711 709 708 706 704 703 701 699 698 697 695 693 692 690 688 687 686 684 682 681 680 678 677 676 674 673 672 671 669
762 761 760 759 759 758 757 756 755 754 753 752 751 749 748 747 746 744 743 742 740 739 737 735 734 732 731 729 727 726 725 723 722 720 718 717 716 714 712 711 709 708 706 705 703 702 700 698 697 695 694 692 691 689 687 686 684 683 681 680 678 677 676 674 673 672 671 669 668
762 761 761 760 759 758 757 756 755 754 753 752 750 749 747 747 745 744 742 741 740 738 737 735 733 731 730 728 727 725 724 722 721 719 717 716 714 713 711 710 708 706 705 703 702 700 699 697 696 694 693 691 690 688 686 684 683 681 680 678 677 675 674 673 672 670 669 668 667
762 762 761 760 759 758 757 756 755 754 752 751 750 749 747 746 745 744 742 741 739 738 736 735 733 731 729 727 726 724 722 721 720 718 717 715 713 712 710 709 707 705 703 702 701 699 698 697 695 694 692 690 689 687 685 683 682 680 678 677 675 674 672 671 670 669 667 666 665
762 762 761 760 759 758 757 756 755 753 752 751 750 749 747 746 745 744 742 741 739 737 736 734 733 731 729 727 726 724 722 721 719 718 716 714 713 711 710 708 706 704 702 701 700 698 697 696 694 693 691 689 687 686 684 682 680 678 677 675 673 672 671 669 668 667 666 664 663
762 762 761 760 759 758 757 756 754 753 752 751 750 749 747 746 745 743 742 741 739 737 736 734 732 731 729 727 726 724 722 720 718 717 715 714 712 710 709 707 706 704 702 700 699 697 696 695 693 692 690 688 687 684 683 681 679 677 675 673 672 670 668 667 666 665 664 662 661
762 762 761 760 759 758 757 756 754 753 752 751 750 749 747 746 745 743 742 740 739 737 736 734 732 731 729 727 725 723 722 720 718 716 714 713 712 710 708 707 705 703 702 700 698 697 696 694 693 691 689 687 686 683 682 680 678 676 674 672 670 668 667 665 664 663 662 661 659
762 762 761 760 759 757 757 755 754 753 752 751 750 748 747 746 744 743 741 740 738 737 735 733 732 730 728 726 725 723 722 720 718 716 714 712 711 710 708 707 705 703 702 700 698 697 695 694 692 691 689 687 685 682 680 678 677 675 673 671 669 667 665 663 662 661 660 659 657
762 761 761 760 759 757 757 755 754 753 752 751 749 748 747 745 744 742 741 739 738 736 735 733 731 729 728 726 724 722 721 720 718 716 714 712 711 709 708 706 705 703 701 699 698 696 694 693 691 690 688 686 684 682 679 677 675 673 672 670 668 666 664 662 661 659 658 657 656
762 761 760 759 758 757 756 755 754 753 752 750 749 747 746 745 743 742 741 739 737 736 734 732 731 729 727 726 724 722 721 719 717 716 714 712 710 708 707 706 704 702 701 699 697 696 694 692 690 688 687 685 683 681 678 676 674 672 670 669 667 665 664 662 660 658 657 656 654
762 761 760 759 758 757 756 755 753 752 751 750 748 747 746 744 743 742 740 738 737 735 733 732 730 729 727 725 724 722 720 719 717 715 713 712 710 708 706 705 703 702 700 698 697 695 693 691 689 687 686 684 682 680 678 675 673 671 669 667 666 664 663 661 660 658 656 655 653
762 761 760 759 758 757 755 754 753 752 751 749 748 747 745 744 742 741 739 738 736 735 733 732 730 728 727 725 723 722 720 718 717 715 713 711 709 707 706 704 702 701 699 697 696 694 692 690 688 687 685 683 681 679 677 675 672 670 668 667 665 664 662 661 659 657 656 654 652
762 761 760 758 757 756 755 754 752 751 750 749 747 746 744 743 742 740 739 737 736 734 733 731 729 728 726 725 723 721 719 718 716 714 712 710 708 706 705 703 701 699 698 696 695 693 691 689 687 685 683 682 680 678 676 673 672 669 667 666 664 663 661 660 658 657 655 653 652
762 761 759 758 757 756 754 753 752 751 749 748 747 745 744 742 741 740 738 737 735 734 732 731 729 727 726 724 723 721 719 717 716 714 712 710 707 705 703 702 700 698 697 695 693 692 690 688 686 684 682 680 678 676 674 672 670 668 667 665 663 662 660 659 657 656 654 652 651
762 760 759 758 757 755 754 753 752 750 749 747 746 745 743 742 741 739 738 736 735 733 731 729 728 726 725 723 722 721 719 717 715 713 711 709 707 705 702 701 699 697 696 694 692 690 688 687 684 682 680 678 677 675 672 671 669 667 666 664 662 661 659 658 657 655 653 652 650
761 760 759 757 756 755 753 752 751 749 748 747 745 744 742 741 739 738 737 735 734 732 730 729 727 726 724 723 721 720 718 716 714 712 710 708 706 704 702 700 698 696 695 693 691 689 687 685 683 681 678 677 675 673 671 669 667 666 664 662 661 660 658 657 655 654 652 651 649
761 760 758 757 756 754 753 752 750 749 747 746 744 743 742 740 739 737 736 734 733 732 730 728 727 726 724 723 721 719 717 715 713 711 709 707 705 703 701 699 697 695 693 691 689 687 685 683 681 679 677 675 673 671 669 667 666 664 662 661 660 658 657 656 654 653 651 650 648
761 759 758 757 755 754 752 751 749 748 747 745 743 742 741 740 738 737 735 733 732 730 729 727 726 725 723 722 721 719 717 714 712 710 708 706 704 702 700 698 696 694 692 690 688 686 684 681 679 677 675 673 672 670 667 666 664 662 661 659 658 657 655 654 653 651 650 648 647
760 759 757 756 754 753 752 750 748 747 746 744 743 741 740 738 737 736 734 732 731 729 728 727 725 724 722 721 719 717 716 713 711 709 707 705 703 701 698 696 694 692 690 688 686 684 682 680 677 676 674 672 670 668 666 664 662 661 659 658 657 655 654 653 651 650 648 647 646
760 758 757 755 754 752 751 749 748 746 745 743 742 741 739 737 736 735 733 732 730 728 727 726 724 723 721 720 718 716 714 712 710 708 706 704 702 700 697 695 692 691 689 687 684 682 680 678 676 674 672 671 669 667 665 663 661 659 658 656 655 654 653 651 650 648 647 646 644
759 758 757 755 753 752 750 749 747 746 744 742 741 740 738 737 735 734 732 731 730 728 726 724 723 722 720 718 717 715 713 711 709 707 705 702 701 699 696 693 691 689 687 685 683 681 679 677 675 673 672 670 667 666 663 661 659 658 656 655 654 652 651 650 649 647 645 644 642
758 757 756 754 752 751 749 748 747 745 743 742 740 739 737 736 735 733 732 731 729 728 726 724 722 721 719 717 715 713 711 709 708 706 704 702 699 697 695 692 690 688 686 684 682 680 678 677 675 673 671 669 667 665 662 660 658 657 655 654 652 651 650 649 647 646 643 642 640
758 756 755 754 752 750 749 747 746 744 743 741 740 738 737 735 734 732 731 730 728 727 725 723 721 720 718 716 714 712 709 707 706 704 702 700 698 696 694 692 689 687 685 683 681 679 677 676 674 672 670 668 666 664 662 660 657 656 654 653 652 650 648 647 646 644 642 640 638
757 755 754 752 751 750 748 746 745 743 742 741 739 738 736 735 733 732 730 729 727 726 724 722 720 718 717 715 713 711 708 706 704 702 701 699 697 695 693 691 688 686 684 682 680 678 676 675 673 671 669 668 666 663 662 659 657 655 654 652 651 650 647 645 643 642 640 638 636